This is the latest recevied weather packets stored in our database for station/object K8GLX. If no packets are shown the sender has not sent any weather packets the latest 10 day(s).
| Time | Temp. | Humidity | Pressure | Rain* | Wind** | Luminosity | Snow |
|---|---|---|---|---|---|---|---|
| 1777487539 | 8.89° C | 97% | 1009.1 hPa | 0.25 mm | - | 98 W/m² | - |
| 1777487233 | 8.89° C | 97% | 1009.2 hPa | 0.25 mm | - | 98 W/m² | - |
| 1777486938 | 8.89° C | 97% | 1009 hPa | 0.25 mm | - | 100 W/m² | - |
| 1777486633 | 8.89° C | 97% | 1009 hPa | 0.51 mm | - | 106 W/m² | - |
| 1777486338 | 9.44° C | 98% | 1009.2 hPa | 0.51 mm | - | 143 W/m² | - |
| 1777486033 | 9.44° C | 98% | 1008.9 hPa | 0.51 mm | - | 124 W/m² | - |
| 1777485738 | 9.44° C | 98% | 1008.6 hPa | 0.51 mm | - | 75 W/m² | - |
| 1777485432 | 9.44° C | 98% | 1008.7 hPa | 0.51 mm | - | 110 W/m² | - |
| 1777485145 | 9.44° C | 98% | 1008.6 hPa | 0.51 mm | - | 115 W/m² | - |
| 1777484834 | 10° C | 98% | 1008.6 hPa | 0.51 mm | - | 140 W/m² | - |
| 1777484665 | 10° C | 98% | 1008.7 hPa | 1.02 mm | - | 146 W/m² | - |
| 1777484233 | 10° C | 97% | 1008.6 hPa | 0.76 mm | - | 152 W/m² | - |
| 1777483939 | 10.56° C | 98% | 1008.8 hPa | 0.76 mm | - | 149 W/m² | - |
| 1777483633 | 10° C | 98% | 1008.9 hPa | 1.02 mm | - | 206 W/m² | - |
| 1777483465 | 10° C | 98% | 1008.9 hPa | 1.02 mm | - | 170 W/m² | - |
| 1777483033 | 10° C | 98% | 1008.8 hPa | 1.27 mm | - | 142 W/m² | - |
| 1777482739 | 10° C | 98% | 1008.9 hPa | 1.52 mm | - | 148 W/m² | - |
| 1777482433 | 10° C | 98% | 1008.8 hPa | 1.78 mm | - | 202 W/m² | - |
| 1777482138 | 10° C | 98% | 1008.9 hPa | 1.78 mm | - | 257 W/m² | - |
| 1777481836 | 10° C | 98% | 1008.7 hPa | 1.78 mm | - | 223 W/m² | - |
| 1777481665 | 10° C | 98% | 1008.5 hPa | 1.52 mm | - | 248 W/m² | - |
| 1777481233 | 9.44° C | 97% | 1008.9 hPa | 1.52 mm | - | 300 W/m² | - |
| 1777480938 | 9.44° C | 97% | 1009 hPa | 1.27 mm | - | 178 W/m² | - |
| 1777480632 | 9.44° C | 97% | 1009.1 hPa | 1.27 mm | - | 103 W/m² | - |
| 1777480465 | 9.44° C | 97% | 1009 hPa | 1.27 mm | - | 84 W/m² | - |
* Rain latest hour (hover to see other rain measurements)
** Current wind speed in m/s (hover to see current wind gust speed)